User: anonymous   Login
Location: Unspecified
(0.0000°N, 0.0000°E)
Time: 03:06:17
(UTC+00:00)
Language:

Cosmos 2334 - Orbit

View from above orbital plane
View from above orbital plane
View from above satellite
View from above satellite

Ground track
Ground track

The orbit data is extracted from the following two-line orbital elements,

1 24304U 96052A   18116.58118958 +.00000046 +00000-0 +32958-4 0  9998
2 24304 082.9308 121.0487 0028358 256.2169 225.8840 13.73552903084396
Epoch (UTC): 26 April 2018 13:56:54
Eccentricity: 0.0028358
inclination: 82.9308°
perigee height: 966 km
apogee height: 1008 km
right ascension of ascending node: 121.0487°
argument of perigee: 256.2169°
revolutions per day: 13.73552903
mean anomaly at epoch: 225.8840°
orbit number at epoch: 8439

The dashed part of the orbit path shows where the satellite is in the earth's shadow,  

DLR